[[{"header":{"parameterUnit":"m.s-1","parameterCategory":1,"la1":30.2991,"la2":30.254,"lo1":-89.0895,"lo2":-89.0444,"dy":0.0017,"dx":0.0017,"nx":28,"ny":28,"refTime":"2024-12-22T09:00:00:Z","depth":0,"parameterNumber":2,"parameterNumberName":"U-component_of_WINDS"},"data":[0,0,0,0,0,0,0,0,0,0,0,0,0,0,0,0,0,0,0,0,0,0,0,0,0,0,0,0,0,0,0,0,0,0,0,0,0,0,0,0,0,0,0,0,0,0,0,0,0,0,0,0,0,0,0,0,0,0,-1.6841,-1.6841,0,-1.6832,-1.6832,-1.6832,-1.6788,-1.6787,-1.6786,-1.6785,-1.6777,-1.6778,-1.6779,0,0,0,0,0,0,0,0,0,0,0,0,0,-1.6821,-1.6821,-1.6841,-1.6841,-1.684,-1.6832,-1.6832,-1.6832,-1.6788,-1.6787,-1.6785,-1.6784,-1.6777,-1.6778,-1.6779,0,0,0,0,0,0,0,0,0,0,0,0,0,-1.6823,-1.6822,-1.6841,-1.6818,-1.6815,-1.6832,-1.6832,-1.6832,-1.6788,-1.6787,-1.6785,-1.6784,-1.6777,-1.6778,-1.6779,-1.6818,0,0,-1.6782,-1.6783,0,0,0,0,0,0,0,0,-1.6823,-1.6823,-1.6821,-1.6819,-1.6817,-1.6809,-1.6822,-1.6827,-1.6789,-1.6799,-1.6785,-1.6783,-1.6789,-1.6789,-1.6791,-1.6817,-1.6817,-1.6783,-1.6783,-1.6784,-1.6784,0,0,0,0,0,0,0,-1.6822,-1.6823,-1.6837,-1.6821,-1.6818,-1.6808,-1.6807,-1.6823,-1.6803,-1.6798,-1.6794,-1.6794,-1.6788,-1.679,-1.6791,-1.6817,-1.6782,-1.6784,-1.6784,-1.6785,-1.6875,-1.6877,0,0,0,0,0,0,-1.6825,-1.6824,-1.6838,-1.6837,-1.6816,-1.681,-1.6808,-1.6813,-1.6803,-1.6799,-1.6795,-1.6792,-1.6789,-1.6789,-1.679,-1.6836,-1.6784,-1.6785,-1.6785,-1.6874,-1.6876,-1.6877,0,0,0,0,0,0,-1.6825,-1.6827,-1.6838,-1.6829,-1.683,-1.6812,-1.6818,-1.6814,-1.6816,-1.6801,-1.6797,-1.6801,-1.6788,-1.6789,-1.6811,-1.6835,-1.6785,-1.6786,-1.6872,-1.6874,-1.6877,-1.6927,0,0,0,0,0,0,-1.6825,-1.6827,-1.6841,-1.683,-1.6831,-1.6859,-1.6819,-1.6815,-1.6818,-1.6814,-1.6805,-1.6803,-1.6786,-1.681,-1.6812,-1.6835,-1.6787,-1.6869,-1.6873,-1.6876,-1.6923,-1.6931,-1.6937,0,0,0,0,0,-1.6824,-1.6856,-1.6842,-1.6844,-1.6848,-1.686,-1.6861,-1.6841,-1.682,-1.6835,-1.6825,-1.6803,-1.6831,-1.6812,-1.6815,-1.6839,-1.6868,-1.6872,-1.6875,-1.692,-1.6929,-1.6937,0,0,0,0,0,0,-1.6871,-1.6854,-1.6839,-1.6868,-1.6866,-1.6853,-1.687,-1.6852,-1.6856,-1.6852,-1.6827,-1.6826,-1.6853,-1.6848,-1.6827,-1.6876,-1.6846,-1.6851,-1.6879,-1.6887,-1.6894,-1.6896,-1.6788,0,0,0,0,0,-1.6884,-1.6895,-1.688,-1.6907,-1.6907,-1.6889,-1.6894,-1.6879,-1.6876,-1.6875,-1.6867,-1.6865,-1.6874,-1.688,-1.6887,-1.6921,-1.692,-1.6939,-1.6946,-1.6952,-1.6957,-1.6976,-1.6985,-1.689,-1.689,-1.689,0,0,-1.6913,-1.6905,-1.6913,-1.6916,-1.6913,-1.6926,-1.6889,-1.6903,-1.6912,-1.6877,-1.6898,-1.6892,-1.6889,-1.6918,-1.693,-1.6915,-1.6983,-1.6957,-1.6962,-1.6964,-1.6981,-1.699,-1.6998,-1.6893,-1.6892,-1.6892,0,0,-1.6971,-1.6966,-1.6988,-1.6986,-1.6981,-1.6969,-1.6974,-1.6964,-1.6959,-1.6979,-1.6953,-1.6964,-1.698,-1.6979,-1.698,-1.7039,-1.7019,-1.7041,-1.708,-1.7098,-1.7106,-1.7112,-1.7134,-1.7142,-1.7046,-1.7046,-1.7046,0,-1.7007,-1.7025,-1.7002,-1.7019,-1.7021,-1.6989,-1.7012,-1.7011,-1.7009,-1.7012,-1.6994,-1.7013,-1.7009,-1.7038,-1.7052,-1.7054,-1.706,-1.7043,-1.7106,-1.7113,-1.7118,-1.7139,-1.7147,-1.7049,-1.7048,-1.7048,-1.7048,0,-1.707,-1.7082,-1.7101,-1.71,-1.7104,-1.7124,-1.7105,-1.7112,-1.7097,-1.7087,-1.7109,-1.7102,-1.7108,-1.7114,-1.7099,-1.7141,-1.7131,-1.711,-1.708,-1.7131,-1.715,-1.7158,-1.7053,-1.7052,-1.7051,-1.705,0,0,-1.7158,-1.7144,-1.7151,-1.7151,-1.7143,-1.7153,-1.7172,-1.7177,-1.7184,-1.7184,-1.7199,-1.7213,-1.7194,-1.7196,-1.718,-1.7197,-1.7245,-1.7174,-1.7173,-1.7188,-1.7292,-1.7309,-1.7318,-1.7231,-1.7233,-1.7234,-1.7293,0,-1.7215,-1.7245,-1.7226,-1.726,-1.7272,-1.7241,-1.7258,-1.7255,-1.7247,-1.7256,-1.7246,-1.7256,-1.7229,-1.7231,-1.7245,-1.7236,-1.7266,-1.7231,-1.7247,-1.7248,-1.725,-1.7328,-1.7346,-1.7402,-1.73,-1.7301,-1.7302,0,-1.7285,-1.7288,-1.7323,-1.7314,-1.7318,-1.7333,-1.7337,-1.7345,-1.7342,-1.7335,-1.7337,-1.7318,-1.7336,-1.7305,-1.7331,-1.7308,-1.7313,-1.7309,-1.7311,-1.7313,-1.7279,-1.7333,-1.7419,-1.7428,-1.7313,-1.7312,-1.7312,0,-1.7347,-1.736,-1.7383,-1.7383,-1.7373,-1.7384,-1.738,-1.7376,-1.738,-1.7383,-1.7386,-1.7392,-1.7395,-1.74,-1.7383,-1.7362,-1.7411,-1.7379,-1.7407,-1.7407,-1.742,-1.7419,-1.7509,-1.7421,-1.7421,-1.742,-1.742,0,-1.7414,-1.7437,-1.7411,-1.7425,-1.745,-1.7428,-1.7453,-1.7446,-1.7443,-1.7456,-1.743,-1.7442,-1.7419,-1.7429,-1.7416,-1.744,-1.7441,-1.7437,-1.7433,-1.744,-1.7441,-1.7444,-1.744,-1.7423,-1.7422,-1.7422,-1.7421,0,-1.7488,-1.7471,-1.7495,-1.7483,-1.748,-1.75,-1.749,-1.7503,-1.7492,-1.7509,-1.7512,-1.7495,-1.7506,-1.7489,-1.7499,-1.749,-1.7523,-1.7513,-1.7525,-1.7522,-1.7552,-1.755,-1.7647,-1.766,-1.7563,-1.7564,-1.7564,0,-1.7532,-1.7549,-1.7539,-1.7546,-1.7544,-1.7555,-1.7559,-1.7537,-1.7543,-1.7541,-1.7555,-1.7564,-1.757,-1.759,-1.7579,-1.7586,-1.7577,-1.7611,-1.7578,-1.7584,-1.7579,-1.7579,-1.7581,-1.7618,-1.7619,-1.762,-1.7621,0,-1.7613,-1.7604,-1.7611,-1.7616,-1.7622,-1.7624,-1.7625,-1.7632,-1.761,-1.7618,-1.7629,-1.7634,-1.7643,-1.7653,-1.7657,-1.7654,-1.7635,-1.7631,-1.7638,-1.7646,-1.7652,-1.765,-1.7544,-1.7629,-1.7628,-1.7628,-1.7627,-1.7627,-1.7674,-1.7688,-1.7684,-1.7693,-1.7691,-1.7693,-1.7705,-1.7695,-1.7704,-1.771,-1.7696,-1.7711,-1.7708,-1.7712,-1.7711,-1.7723,-1.7708,-1.7718,-1.7721,-1.7724,-1.7729,-1.7649,-1.7723,-1.7723,-1.7723,-1.7723,-1.7722,0,-1.7754,-1.775,-1.7758,-1.776,-1.7768,-1.7747,-1.7748,-1.7756,-1.7769,-1.7767,-1.7774,-1.7787,-1.7796,-1.7786,-1.7794,-1.7805,-1.7796,-1.7808,-1.7808,-1.7807,-1.7741,-1.7735,-1.7815,-1.7815,-1.7815,-1.7815,-1.7815,-1.7815,-1.7797,-1.782,-1.7811,-1.7833,-1.7828,-1.7842,-1.7844,-1.7846,-1.7845,-1.786,-1.7868,-1.7861,-1.7856,-1.7863,-1.7871,-1.7868,-1.7873,-1.7888,-1.7882,-1.7821,-1.7812,-1.7803,-1.7797,-1.7889,-1.7889,-1.7947,-1.7948,-1.7948]},{"header":{"parameterUnit":"m.s-1","parameterCategory":1,"la1":30.2991,"la2":30.254,"lo1":-89.0895,"lo2":-89.0444,"dy":0.0017,"dx":0.0017,"nx":28,"ny":28,"refTime":"2024-12-22T09:00:00:Z","depth":0,"parameterNumber":3,"parameterNumberName":"V-component_of_WINDS"},"data":[0,0,0,0,0,0,0,0,0,0,0,0,0,0,0,0,0,0,0,0,0,0,0,0,0,0,0,0,0,0,0,0,0,0,0,0,0,0,0,0,0,0,0,0,0,0,0,0,0,0,0,0,0,0,0,0,0,0,-2.1491,-2.1492,0,-2.1531,-2.1531,-2.1531,-2.1536,-2.1535,-2.1535,-2.1535,-2.1572,-2.1574,-2.1575,0,0,0,0,0,0,0,0,0,0,0,0,0,-2.1417,-2.1418,-2.1491,-2.1492,-2.1492,-2.1531,-2.1531,-2.1532,-2.1536,-2.1535,-2.1535,-2.1534,-2.1572,-2.1574,-2.1575,0,0,0,0,0,0,0,0,0,0,0,0,0,-2.1452,-2.1419,-2.1491,-2.1499,-2.15,-2.153,-2.1531,-2.1532,-2.1536,-2.1535,-2.1535,-2.1534,-2.1572,-2.1574,-2.1576,-2.16,0,0,-2.1582,-2.1583,0,0,0,0,0,0,0,0,-2.145,-2.1455,-2.1497,-2.1498,-2.15,-2.1528,-2.1519,-2.1555,-2.1536,-2.1522,-2.1535,-2.1534,-2.1558,-2.1561,-2.157,-2.1602,-2.1603,-2.1582,-2.1583,-2.1584,-2.1585,0,0,0,0,0,0,0,-2.1447,-2.1453,-2.1507,-2.1498,-2.1499,-2.15,-2.1504,-2.1526,-2.1543,-2.1523,-2.1524,-2.1529,-2.1558,-2.1568,-2.1571,-2.1604,-2.1582,-2.1584,-2.1585,-2.1586,-2.1659,-2.1659,0,0,0,0,0,0,-2.1444,-2.1451,-2.1505,-2.1508,-2.1473,-2.1501,-2.1506,-2.1519,-2.1543,-2.1546,-2.1529,-2.1529,-2.1564,-2.1568,-2.1572,-2.1603,-2.1584,-2.1586,-2.1587,-2.1658,-2.1659,-2.166,0,0,0,0,0,0,-2.1442,-2.1449,-2.1504,-2.1479,-2.1487,-2.1503,-2.1518,-2.152,-2.153,-2.1547,-2.155,-2.1536,-2.1564,-2.1569,-2.1593,-2.1604,-2.1587,-2.1589,-2.1657,-2.1658,-2.1659,-2.1665,0,0,0,0,0,0,-2.144,-2.1448,-2.1458,-2.148,-2.1488,-2.1525,-2.1519,-2.1522,-2.1534,-2.1533,-2.1554,-2.1556,-2.1564,-2.159,-2.1595,-2.1607,-2.159,-2.1656,-2.1658,-2.1659,-2.1664,-2.1666,-2.1668,0,0,0,0,0,-2.1437,-2.1457,-2.1459,-2.1465,-2.1501,-2.1526,-2.1531,-2.154,-2.1534,-2.1544,-2.1555,-2.1556,-2.1602,-2.1593,-2.1599,-2.1611,-2.1656,-2.1657,-2.1659,-2.1663,-2.1666,-2.1668,0,0,0,0,0,0,-2.1436,-2.146,-2.1462,-2.149,-2.1506,-2.1527,-2.154,-2.1542,-2.1559,-2.1558,-2.1568,-2.1572,-2.1597,-2.1606,-2.1595,-2.1636,-2.1628,-2.1631,-2.1629,-2.1632,-2.1634,-2.1632,-2.1592,0,0,0,0,0,-2.1439,-2.1458,-2.1478,-2.15,-2.1508,-2.1523,-2.1534,-2.154,-2.1556,-2.1563,-2.1576,-2.1591,-2.1609,-2.1621,-2.1638,-2.1665,-2.167,-2.1676,-2.1678,-2.168,-2.1682,-2.1698,-2.1701,-2.1665,-2.1665,-2.1665,0,0,-2.1445,-2.146,-2.1472,-2.15,-2.1514,-2.1533,-2.1528,-2.1548,-2.1563,-2.1565,-2.159,-2.16,-2.1618,-2.1643,-2.1655,-2.1652,-2.1693,-2.1682,-2.1683,-2.1685,-2.17,-2.1703,-2.1706,-2.1666,-2.1666,-2.1666,0,0,-2.1466,-2.148,-2.1501,-2.1514,-2.1534,-2.1544,-2.1549,-2.1569,-2.1576,-2.1601,-2.1604,-2.162,-2.1651,-2.1664,-2.1675,-2.1701,-2.1702,-2.1706,-2.1717,-2.1732,-2.1735,-2.1738,-2.1748,-2.1752,-2.1708,-2.1708,-2.1708,0,-2.1471,-2.1501,-2.151,-2.1531,-2.1544,-2.1548,-2.1569,-2.1581,-2.1606,-2.1614,-2.161,-2.1649,-2.1661,-2.1691,-2.1697,-2.1705,-2.1711,-2.1704,-2.1734,-2.1737,-2.1739,-2.1749,-2.1753,-2.1709,-2.1709,-2.1709,-2.1709,0,-2.1506,-2.1527,-2.1541,-2.1566,-2.158,-2.1601,-2.1613,-2.1626,-2.163,-2.1639,-2.1665,-2.1679,-2.1701,-2.1707,-2.1711,-2.1738,-2.1735,-2.1732,-2.1725,-2.1743,-2.1753,-2.1757,-2.171,-2.1709,-2.1709,-2.1709,0,0,-2.1528,-2.1559,-2.1564,-2.1576,-2.1599,-2.1615,-2.1635,-2.1657,-2.1668,-2.1684,-2.1702,-2.1728,-2.1726,-2.1738,-2.1743,-2.1756,-2.1777,-2.1752,-2.1752,-2.1757,-2.1808,-2.1811,-2.1815,-2.1778,-2.1778,-2.1779,-2.1807,0,-2.1553,-2.1592,-2.1601,-2.1634,-2.1653,-2.1657,-2.1675,-2.1691,-2.17,-2.1717,-2.1727,-2.1746,-2.1741,-2.1748,-2.1761,-2.1772,-2.1788,-2.177,-2.1794,-2.1795,-2.1791,-2.182,-2.1823,-2.1849,-2.1811,-2.1811,-2.1812,0,-2.1588,-2.1607,-2.1642,-2.1663,-2.1671,-2.1687,-2.1708,-2.1725,-2.1742,-2.1748,-2.1762,-2.1765,-2.1786,-2.1777,-2.1806,-2.1794,-2.1804,-2.1811,-2.1812,-2.1816,-2.1806,-2.1826,-2.1858,-2.1862,-2.1818,-2.1817,-2.1817,0,-2.1602,-2.1636,-2.1662,-2.1671,-2.1696,-2.1708,-2.1718,-2.1735,-2.1748,-2.1765,-2.1774,-2.1793,-2.1804,-2.1818,-2.1827,-2.1819,-2.1856,-2.1847,-2.1862,-2.1862,-2.187,-2.187,-2.1906,-2.1875,-2.1875,-2.1875,-2.1874,0,-2.163,-2.1651,-2.1669,-2.1684,-2.1708,-2.1718,-2.1742,-2.1752,-2.1767,-2.1785,-2.1788,-2.1804,-2.1815,-2.1832,-2.1839,-2.1863,-2.1867,-2.1872,-2.1874,-2.1873,-2.1872,-2.1881,-2.188,-2.1876,-2.1875,-2.1875,-2.1875,0,-2.165,-2.1663,-2.1691,-2.1713,-2.1719,-2.1735,-2.1753,-2.1769,-2.1778,-2.18,-2.1806,-2.182,-2.1841,-2.1851,-2.1876,-2.188,-2.1908,-2.1908,-2.1902,-2.1903,-2.1918,-2.1917,-2.1961,-2.1968,-2.1931,-2.1932,-2.1932,0,-2.1668,-2.1685,-2.1709,-2.1721,-2.1733,-2.1753,-2.1766,-2.1776,-2.1789,-2.1811,-2.1824,-2.1845,-2.1862,-2.1895,-2.1907,-2.1927,-2.1928,-2.1942,-2.1931,-2.1929,-2.193,-2.1929,-2.1931,-2.1944,-2.1945,-2.1945,-2.1945,0,-2.1699,-2.1704,-2.1724,-2.1746,-2.1762,-2.1779,-2.1796,-2.1806,-2.1818,-2.1833,-2.1855,-2.1869,-2.1895,-2.1916,-2.1937,-2.1947,-2.1948,-2.1948,-2.1953,-2.1953,-2.195,-2.1953,-2.191,-2.1948,-2.1947,-2.1947,-2.1947,-2.1947,-2.1719,-2.1735,-2.1755,-2.1776,-2.179,-2.1806,-2.1822,-2.1834,-2.1853,-2.1876,-2.188,-2.1904,-2.192,-2.1948,-2.1959,-2.1977,-2.1974,-2.198,-2.1982,-2.1984,-2.1985,-2.1946,-2.198,-2.198,-2.198,-2.198,-2.198,0,-2.1751,-2.1764,-2.1784,-2.1809,-2.1826,-2.1826,-2.1845,-2.1859,-2.188,-2.1896,-2.1914,-2.1939,-2.196,-2.1973,-2.1994,-2.2006,-2.2007,-2.2011,-2.2011,-2.2014,-2.1986,-2.1981,-2.201,-2.201,-2.201,-2.201,-2.201,-2.201,-2.177,-2.1797,-2.1805,-2.1839,-2.1851,-2.1875,-2.1886,-2.1901,-2.1914,-2.1942,-2.196,-2.1969,-2.1984,-2.2006,-2.2025,-2.2028,-2.2036,-2.204,-2.2044,-2.2018,-2.2015,-2.2012,-2.2007,-2.2041,-2.2041,-2.207,-2.207,-2.207]}]]